This is the latest recevied weather packets stored in our database for station/object DJ2KUA-6. If no packets are shown the sender has not sent any weather packets the latest 10 day(s).
| Time | Temp. | Humidity | Pressure | Rain* | Wind** | Luminosity | Snow |
|---|---|---|---|---|---|---|---|
| 1787871639 | 23.89° C | 69% | 1061 hPa | 0 mm | - | - | - |
| 1787870498 | 23.89° C | 68% | 1060 hPa | 0 mm | - | - | - |
| 1787869359 | 23.89° C | 68% | 1061 hPa | 0 mm | - | - | - |
| 1787867077 | 23.89° C | 67% | 1061 hPa | 0 mm | - | - | - |
| 1787865937 | 23.89° C | 67% | 1061 hPa | 0 mm | - | - | - |
| 1787863658 | 23.89° C | 68% | 1061 hPa | 0 mm | - | - | - |
| 1787862519 | 24.44° C | 69% | 1061 hPa | 0 mm | - | - | - |
| 1787861379 | 24.44° C | 68% | 1061 hPa | 0 mm | - | - | - |
| 1787860239 | 25° C | 66% | 1061 hPa | 0 mm | - | - | - |
| 1787859099 | 25.56° C | 64% | 1061 hPa | 0 mm | - | - | - |
| 1787856819 | 26.67° C | 60% | 1061 hPa | 0 mm | - | - | - |
| 1787853400 | 28.33° C | 52% | 1061 hPa | 0 mm | - | - | - |
| 1787852261 | 29.44° C | 50% | 1062 hPa | 0 mm | - | - | - |
| 1787849979 | 31.11° C | 44% | 1062 hPa | 0 mm | - | - | - |
| 1787848840 | 32.22° C | 44% | 1062 hPa | 0 mm | - | - | - |
| 1787847698 | 32.78° C | 43% | 1062 hPa | 0 mm | - | - | - |
| 1787846563 | 32.22° C | 43% | 1063 hPa | 0 mm | - | - | - |
| 1787844280 | 32.78° C | 41% | 1063 hPa | 0 mm | - | - | - |
| 1787841998 | 32.78° C | 41% | 1063 hPa | 0 mm | - | - | - |
| 1787840862 | 32.78° C | 41% | 1063 hPa | 0 mm | - | - | - |
| 1787839718 | 33.33° C | 40% | 1063 hPa | 0 mm | - | - | - |
| 1787838579 | 33.33° C | 41% | 1063 hPa | 0 mm | - | - | - |
| 1787837438 | 32.78° C | 46% | 1063 hPa | 0 mm | - | - | - |
| 1787836299 | 31.67° C | 48% | 1063 hPa | 0 mm | - | - | - |
| 1787835158 | 31.11° C | 50% | 1063 hPa | 0 mm | - | - | - |
* Rain latest hour (hover to see other rain measurements)
** Current wind speed in m/s (hover to see current wind gust speed)